Station CLSM4 - St. Clair Shores, MI Image indicating link to RSS feed of recent meteorological observations for station CLSM4


Conditions at CLSM4 as of
(12:00 pm EDT)
1600 GMT on 04/23/2024:
     

Click on the graph icon in the table below to see a time series plot of the last five days of that observation.

5-day plot - Wind Direction Wind Direction (WDIR): SW ( 220 deg true )
5-day plot - Wind Speed Wind Speed (WSPD): 13.0 kts
5-day plot - Wind Gust Wind Gust (GST): 19.0 kts
5-day plot - Atmospheric Pressure Atmospheric Pressure (PRES):29.81 in
5-day plot - Pressure Tendency Pressure Tendency (PTDY):-0.04 in ( Falling )
5-day plot - Air Temperature Air Temperature (ATMP): 56.5 °F
5-day plot - Wind Speed at 10 Meters Wind Speed at 10 meters (WSPD10M): 13.6 kts
5-day plot - Wind Speed at 20 Meters Wind Speed at 20 meters (WSPD20M): 13.6 kts
5-day plot -  Wind Speed, Wind Gust and Atmospheric Pressure Combined plot of Wind Speed, Gust, and Air Pressure
Previous observations
TIME
(EDT)
5-day plot - Wind Direction
WDIR
 
5-day plot - Wind Speed
WSPD
kts
5-day plot - Wind Gust
GST
kts
5-day plot - Wave Height
WVHT
ft
5-day plot - Dominant Wave Period
DPD
sec
5-day plot - Average Wave Period
APD
sec
5-day plot - Mean Wave Direction
MWD
 
5-day plot - Atmospheric Pressure
PRES
in
5-day plot - Pressure Tendency
PTDY
in
5-day plot - Air Temperature
ATMP
°F
5-day plot - Water Temperature
WTMP
°F
5-day plot - Dew Point
DEWP
°F
5-day plot - Salinity
SAL
psu
5-day plot - Visibility
VIS
nmi
5-day plot - Tide (above MLLW)
TIDE
ft
2024-04-23 11:50 amSSW 12.0 18.1----29.80- 56.1-----
2024-04-23 11:40 amSSW 9.9 15.9----29.81- 55.4-----
2024-04-23 11:30 amSSW 11.1 15.9----29.81- 55.0-----
2024-04-23 11:20 amSSW 13.0 20.0----29.80- 56.1-----
2024-04-23 11:10 amSSW 15.0 21.0----29.80- 56.3-----
2024-04-23 11:00 amSSW 15.0 24.1----29.80-0.08 56.5-----
2024-04-23 10:50 am SW 13.0 19.0----29.81- 56.5-----
2024-04-23 10:40 amSSW 13.0 18.1----29.80- 56.8-----
2024-04-23 10:30 amSSW 15.0 21.0----29.80- 56.8-----
2024-04-23 10:20 amSSW 8.9 18.1----29.80- 56.3-----
2024-04-23 10:10 amSSW 13.0 19.0----29.81- 56.1-----
2024-04-23 10:00 am S 9.9 18.1----29.80- 55.9-----
2024-04-23 09:50 amSSW 12.0 18.1----29.81- 55.6-----
2024-04-23 09:40 am S 8.0 17.1----29.82- 55.4-----
2024-04-23 09:30 amSSW 8.0 15.0----29.83- 55.0-----
2024-04-23 09:20 amSSW 12.0 18.1----29.84- 54.9-----
2024-04-23 09:10 amSSW 8.9 15.0----29.85- 54.7-----
2024-04-23 09:00 am S 8.0 21.0----29.85- 54.1-----
2024-04-23 08:50 amSSW 8.9 15.0----29.87- 53.8-----
2024-04-23 08:40 amSSW 9.9 15.0----29.87- 54.0-----
2024-04-23 08:30 amSSW 8.9 17.1----29.88- 54.1-----
2024-04-23 08:20 amSSW 8.9 15.0----29.87- 53.6-----
2024-04-23 08:10 amSSW 9.9 17.1----29.88- 53.2-----
2024-04-23 08:00 amSSW 8.9 15.9----29.88-0.03 53.1-----
2024-04-23 07:50 amSSW 11.1 17.1----29.88- 52.9-----
2024-04-23 07:40 amSSW 8.9 15.9----29.88- 52.7-----
2024-04-23 07:30 amSSW 8.9 17.1----29.87- 52.5-----
2024-04-23 07:20 am S 8.0 15.0----29.87- 52.2-----
2024-04-23 07:10 am S 8.0 14.0----29.88- 52.0-----
2024-04-23 07:00 am S 8.0 15.9----29.88-0.04 52.0-----
2024-04-23 06:50 am S 8.0 17.1----29.88- 52.0-----
2024-04-23 06:40 amSSW 11.1 14.0----29.88- 52.0-----
2024-04-23 06:30 am S 8.0 13.0----29.88- 52.0-----
2024-04-23 06:20 amSSW 7.0 13.0----29.88- 52.0-----
2024-04-23 06:10 am S 7.0 15.0----29.89- 52.0-----
2024-04-23 06:00 am S 11.1 17.1----29.89-0.05 52.2-----
2024-04-23 05:50 amSSW 8.0 14.0----29.89- 52.2-----
2024-04-23 05:40 am S 8.0 14.0----29.90- 52.3-----
2024-04-23 05:30 am S 8.0 13.0----29.90- 52.3-----
2024-04-23 05:20 amSSW 8.9 13.0----29.90- 52.5-----
2024-04-23 05:10 amSSW 8.0 11.1----29.91- 52.5-----
2024-04-23 05:00 amSSW 7.0 9.9----29.91-0.05 52.5-----
2024-04-23 04:50 am S 6.0 12.0----29.92- 52.5-----
2024-04-23 04:40 am S 7.0 11.1----29.92- 52.7-----
2024-04-23 04:30 am S 6.0 13.0----29.92- 52.7-----
2024-04-23 04:20 am S 8.0 12.0----29.92- 52.7-----
2024-04-23 04:10 am S 7.0 12.0----29.92- 52.7-----
2024-04-23 04:00 am S 7.0 11.1----29.92-0.06 52.7-----
2024-04-23 03:50 am S 5.1 11.1----29.93- 52.9-----
2024-04-23 03:40 amSSW 7.0 12.0----29.93- 52.9-----
2024-04-23 03:30 am S 8.0 11.1----29.93- 53.1-----
2024-04-23 03:20 amSSW 7.0 12.0----29.94- 53.1-----
2024-04-23 03:10 am S 7.0 12.0----29.94- 53.2-----
2024-04-23 03:00 amSSW 6.0 11.1----29.94-0.04 53.2-----
2024-04-23 02:50 amSSW 8.0 13.0----29.94- 53.4-----
2024-04-23 02:40 amSSW 6.0 9.9----29.95- 53.4-----
2024-04-23 02:30 amSSW 6.0 12.0----29.95- 53.4-----
2024-04-23 02:20 amSSW 7.0 12.0----29.95- 53.6-----
2024-04-23 02:10 amSSW 8.0 11.1----29.96- 53.6-----
2024-04-23 02:00 amSSW 6.0 11.1----29.96-0.03 53.8-----
2024-04-23 01:50 amSSW 7.0 11.1----29.96- 54.0-----
2024-04-23 01:40 amSSW 6.0 11.1----29.97- 54.1-----
2024-04-23 01:30 am S 7.0 11.1----29.97- 54.3-----
2024-04-23 01:20 amSSW 7.0 11.1----29.97- 54.5-----
2024-04-23 01:10 am S 7.0 13.0----29.97- 54.7-----
2024-04-23 01:00 am S 7.0 13.0----29.98-0.01 54.9-----
2024-04-23 12:50 amSSW 8.0 12.0----29.97- 55.0-----
2024-04-23 12:40 am S 6.0 11.1----29.98- 55.2-----
2024-04-23 12:30 amSSW 8.0 13.0----29.98- 55.6-----
2024-04-23 12:20 amSSW 8.0 12.0----29.98- 55.6-----
2024-04-23 12:10 amSSW 8.0 12.0----29.98- 55.6-----
2024-04-23 12:00 amSSW 7.0 14.0----29.98+0.00 55.6-----
2024-04-22 11:50 pmSSW 7.0 11.1----29.98- 55.6-----
2024-04-22 11:40 pmSSW 6.0 12.0----29.99- 55.6-----
2024-04-22 11:30 pm S 7.0 13.0----29.98- 55.8-----
2024-04-22 11:20 pmSSW 7.0 12.0----29.99- 55.8-----
2024-04-22 11:10 pmSSW 7.0 9.9----29.99- 55.9-----
2024-04-22 11:00 pmSSW 6.0 12.0----29.99+0.01 55.9-----
2024-04-22 10:50 pm S 6.0 9.9----29.99- 55.8-----
2024-04-22 10:40 pm S 6.0 11.1----29.99- 55.8-----
2024-04-22 10:30 pmSSW 6.0 8.9----29.99- 55.8-----
2024-04-22 10:20 pm S 6.0 8.9----29.99- 55.9-----
2024-04-22 10:10 pm S 6.0 8.9----29.99- 56.1-----
2024-04-22 10:00 pm S 6.0 8.9----29.99+0.00 56.5-----
2024-04-22 09:50 pm S 7.0 9.9----29.99- 56.7-----
2024-04-22 09:40 pm S 6.0 8.9----29.99- 57.0-----
2024-04-22 09:30 pm S 4.1 7.0----29.99- 57.4-----
2024-04-22 09:20 pm S 4.1 8.0----29.98- 57.9-----
2024-04-22 09:10 pm S 5.1 11.1----29.98- 58.8-----
2024-04-22 09:00 pm S 6.0 11.1----29.98-0.02 59.4-----
2024-04-22 08:50 pmSSW 7.0 11.1----29.98- 59.5-----
2024-04-22 08:40 pmSSW 7.0 12.0----29.98- 59.9-----
2024-04-22 08:30 pmSSW 8.0 14.0----29.98- 60.3-----
2024-04-22 08:20 pm SW 8.0 15.9----29.98- 60.6-----
2024-04-22 08:10 pm SW 9.9 17.1----29.98- 60.8-----
2024-04-22 08:00 pmSSW 9.9 20.0----29.98-0.04 61.0-----
2024-04-22 07:50 pmSSW 11.1 17.1----29.97- 61.2-----
2024-04-22 07:40 pm SW 9.9 17.1----29.98- 61.3-----
2024-04-22 07:30 pmSSW 12.0 19.0----29.98- 61.5-----
2024-04-22 07:20 pm SW 9.9 17.1----29.99- 61.7-----
2024-04-22 07:10 pmSSW 9.9 18.1----29.99- 61.9-----
2024-04-22 07:00 pm SW 9.9 17.1----29.99-0.06 61.9-----
2024-04-22 06:50 pm SW 8.9 18.1----29.99- 62.2-----
2024-04-22 06:40 pm SW 13.0 18.1----29.99- 62.1-----
2024-04-22 06:30 pmWSW 13.0 21.0----30.00- 62.4-----
2024-04-22 06:20 pmSSW 8.9 19.0----30.00- 62.6-----
2024-04-22 06:10 pm SW 9.9 15.9----30.00- 62.6-----
2024-04-22 06:00 pm SW 12.0 19.0----30.00-0.07 62.4-----
2024-04-22 05:50 pm SW 14.0 20.0----30.01- 62.6-----
2024-04-22 05:40 pm SW 9.9 20.0----30.01- 62.4-----
2024-04-22 05:30 pm SW 9.9 15.0----30.01- 62.4-----
2024-04-22 05:20 pm SW 11.1 18.1----30.01- 62.8-----
2024-04-22 05:10 pmSSW 6.0 19.0----30.02- 62.2-----
2024-04-22 05:00 pmWSW 6.0 18.1----30.02-0.08 61.7-----
2024-04-22 04:50 pm S 7.0 17.1----30.02- 62.4-----
2024-04-22 04:40 pmSSW 13.0 19.0----30.03- 62.2-----
2024-04-22 04:30 pmSSW 8.9 17.1----30.03- 61.5-----
2024-04-22 04:20 pmSSW 8.9 21.0----30.03- 61.9-----
2024-04-22 04:10 pmSSW 11.1 15.0----30.04- 61.7-----
2024-04-22 04:00 pmSSW 9.9 21.0----30.05-0.06 61.2-----
2024-04-22 03:50 pm S 9.9 20.0----30.05- 60.8-----
2024-04-22 03:40 pmSSW 13.0 19.0----30.06- 60.8-----
2024-04-22 03:30 pmSSW 12.0 18.1----30.06- 60.6-----
2024-04-22 03:20 pm SW 14.0 22.9----30.07- 60.1-----
2024-04-22 03:10 pmSSW 8.9 15.0----30.07- 60.3-----
2024-04-22 03:00 pmSSW 11.1 17.1----30.07-0.06 60.4-----
2024-04-22 02:50 pmSSW 6.0 21.0----30.08- 59.4-----
2024-04-22 02:40 pmSSW 13.0 18.1----30.08- 59.7-----
2024-04-22 02:30 pmSSW 8.0 17.1----30.08- 59.5-----
2024-04-22 02:20 pmSSW 8.0 15.0----30.08- 58.8-----
2024-04-22 02:10 pmSSW 11.1 21.0----30.09- 59.0-----
2024-04-22 02:00 pm SW 8.9 15.9----30.10-0.04 58.6-----
2024-04-22 01:50 pm SW 7.0 18.1----30.10- 57.9-----
2024-04-22 01:40 pm S 6.0 17.1----30.10- 57.9-----
2024-04-22 01:30 pmSSW 8.0 13.0----30.10- 57.6-----
2024-04-22 01:20 pmSSW 8.0 15.0----30.11- 57.6-----
2024-04-22 01:10 pmSSW 11.1 15.9----30.11- 57.0-----
2024-04-22 01:00 pmSSW 8.0 12.0----30.11-0.04 57.2-----
2024-04-22 12:50 pmSSW 8.0 13.0----30.11- 56.3-----
2024-04-22 12:40 pm SW 8.0 14.0----30.12- 55.9-----
2024-04-22 12:30 pm SW 6.0 13.0----30.13- 55.9-----
2024-04-22 12:20 pmSSW 7.0 12.0----30.13- 55.4-----
2024-04-22 12:10 pm S 7.0 14.0----30.13- 54.3-----
2024-04-22 12:00 pmSSE 11.1 15.9----30.13-0.03 53.1-----
2024-04-22 11:50 amSSE 9.9 18.1----30.14- 54.0-----